When you browse on this site, cookies collect data to enhance your experience and personalize the content and advertising you see.
Visit our Privacy Policy to learn more. By continuing to use the site, you agree to this use of cookies and data.
  • en France
  • Liste des pays
  • À 7 jours
  • Température de l'eau
  • Carte satellitaire
  • Carte météo
  • Widgets météo
  • user-avatar
    Se connecter

    Météo par heure à Veszprém

    Ce jour, 18 Février, Lundi

    Heure Température Précipitation Vent Pression Humidité
    00:00 +6°C° 0 mm 1 m/s 746 mmHg 65%
    01:00 +5°C° 0 mm 0 m/s 746 mmHg 66%
    02:00 +4°C° 0 mm 0 m/s 746 mmHg 67%
    03:00 +4°C° 0 mm 0 m/s 746 mmHg 68%
    04:00 +4°C° 0 mm 0 m/s 746 mmHg 69%
    05:00 +4°C° 0 mm 0 m/s 746 mmHg 71%
    06:00 +3°C° 0 mm 0 m/s 746 mmHg 72%
    07:00 +3°C° 0 mm 0 m/s 746 mmHg 74%
    08:00 +6°C° 0 mm 1 m/s 746 mmHg 68%
    09:00 +8°C° 0 mm 1 m/s 746 mmHg 62%
    10:00 +9°C° 0 mm 1 m/s 746 mmHg 57%
    11:00 +10°C° 0 mm 1 m/s 746 mmHg 53%
    12:00 +12°C° 0 mm 1 m/s 745 mmHg 49%
    13:00 +13°C° 0 mm 2 m/s 745 mmHg 45%
    14:00 +13°C° 0 mm 2 m/s 745 mmHg 46%
    15:00 +13°C° 0 mm 2 m/s 744 mmHg 47%
    16:00 +13°C° 0 mm 2 m/s 744 mmHg 48%
    17:00 +10°C° 0 mm 2 m/s 744 mmHg 51%
    18:00 +9°C° 0 mm 2 m/s 744 mmHg 54%
    19:00 +8°C° 0 mm 1 m/s 744 mmHg 57%
    20:00 +7°C° 0 mm 2 m/s 743 mmHg 60%
    21:00 +7°C° 0 mm 2 m/s 743 mmHg 62%
    22:00 +6°C° 0 mm 2 m/s 743 mmHg 65%
    23:00 +6°C° 0 mm 2 m/s 743 mmHg 67%

    Demain, 19 Février, Mardi

    Heure Température Précipitation Vent Pression Humidité
    00:00 +5°C° 0 mm 2 m/s 743 mmHg 70%
    01:00 +5°C° 0 mm 2 m/s 743 mmHg 72%
    02:00 +5°C° 0 mm 2 m/s 743 mmHg 74%
    03:00 +4°C° 0 mm 2 m/s 742 mmHg 76%
    04:00 +4°C° 0 mm 2 m/s 742 mmHg 78%
    05:00 +3°C° 0 mm 2 m/s 742 mmHg 79%
    06:00 +4°C° 0 mm 1 m/s 742 mmHg 80%
    07:00 +4°C° 0 mm 1 m/s 742 mmHg 81%
    08:00 +5°C° 0 mm 1 m/s 742 mmHg 75%
    09:00 +7°C° 0 mm 1 m/s 742 mmHg 68%
    10:00 +8°C° 0 mm 1 m/s 742 mmHg 62%
    11:00 +10°C° 0 mm 1 m/s 742 mmHg 58%
    12:00 +11°C° 0 mm 1 m/s 742 mmHg 53%
    13:00 +12°C° 0 mm 2 m/s 742 mmHg 49%
    14:00 +12°C° 0 mm 2 m/s 741 mmHg 49%
    15:00 +12°C° 0 mm 2 m/s 741 mmHg 49%
    16:00 +12°C° 0 mm 2 m/s 741 mmHg 50%
    17:00 +10°C° 0 mm 2 m/s 741 mmHg 55%
    18:00 +8°C° 0 mm 2 m/s 741 mmHg 60%
    19:00 +7°C° 0 mm 2 m/s 741 mmHg 65%
    20:00 +7°C° 0 mm 2 m/s 741 mmHg 67%
    21:00 +6°C° 0 mm 2 m/s 742 mmHg 68%
    22:00 +6°C° 0 mm 2 m/s 742 mmHg 70%
    23:00 +6°C° 0 mm 2 m/s 742 mmHg 71%

    Après-demain, 20 Février, Mercredi

    Heure Température Précipitation Vent Pression Humidité
    00:00 +5°C° 0 mm 2 m/s 742 mmHg 72%
    01:00 +5°C° 0 mm 2 m/s 742 mmHg 73%
    02:00 +4°C° 0 mm 3 m/s 742 mmHg 76%
    03:00 +4°C° 0 mm 4 m/s 743 mmHg 79%
    04:00 +4°C° 0 mm 4 m/s 743 mmHg 82%
    05:00 +4°C° 0 mm 4 m/s 743 mmHg 81%
    06:00 +2°C° 0 mm 5 m/s 744 mmHg 80%
    07:00 +2°C° 0 mm 5 m/s 744 mmHg 79%
    08:00 +3°C° 0 mm 5 m/s 744 mmHg 73%
    09:00 +6°C° 0 mm 5 m/s 745 mmHg 66%
    10:00 +7°C° 0 mm 5 m/s 745 mmHg 60%
    11:00 +8°C° 0 mm 5 m/s 745 mmHg 56%
    12:00 +9°C° 0 mm 5 m/s 745 mmHg 53%
    13:00 +9°C° 0 mm 5 m/s 745 mmHg 49%
    14:00 +10°C° 0 mm 4 m/s 745 mmHg 49%
    15:00 +10°C° 0 mm 4 m/s 745 mmHg 49%
    16:00 +10°C° 0 mm 3 m/s 745 mmHg 48%
    17:00 +9°C° 0 mm 2 m/s 745 mmHg 52%
    18:00 +8°C° 0 mm 2 m/s 746 mmHg 56%
    19:00 +8°C° 0 mm 1 m/s 746 mmHg 60%
    20:00 +8°C° 0 mm 1 m/s 746 mmHg 62%
    21:00 +8°C° 0 mm 1 m/s 746 mmHg 63%
    22:00 +7°C° 0 mm 1 m/s 747 mmHg 65%
    23:00 +7°C° 0 mm 1 m/s 747 mmHg 67%

    21 Février, Jeudi

    Heure Température Précipitation Vent Pression Humidité
    00:00 +7°C° 0 mm 1 m/s 747 mmHg 70%
    01:00 +6°C° 0 mm 1 m/s 747 mmHg 73%
    02:00 +6°C° 0 mm 1 m/s 747 mmHg 74%
    03:00 +5°C° 0 mm 1 m/s 747 mmHg 76%
    04:00 +5°C° 0 mm 1 m/s 747 mmHg 77%
    05:00 +5°C° 0 mm 1 m/s 747 mmHg 77%
    06:00 +5°C° 0 mm 1 m/s 747 mmHg 78%
    07:00 +5°C° 0 mm 1 m/s 747 mmHg 78%
    08:00 +6°C° 0 mm 1 m/s 747 mmHg 73%
    09:00 +7°C° 0 mm 2 m/s 748 mmHg 68%
    10:00 +8°C° 0 mm 2 m/s 748 mmHg 63%
    11:00 +9°C° 0 mm 2 m/s 748 mmHg 60%
    12:00 +10°C° 0 mm 3 m/s 747 mmHg 57%
    13:00 +11°C° 0 mm 3 m/s 747 mmHg 54%
    14:00 +11°C° 0.1 mm 3 m/s 747 mmHg 56%
    15:00 +11°C° 0.1 mm 3 m/s 746 mmHg 57%
    16:00 +12°C° 0.1 mm 2 m/s 746 mmHg 59%
    17:00 +10°C° 0 mm 2 m/s 746 mmHg 63%
    18:00 +9°C° 0 mm 2 m/s 746 mmHg 67%
    19:00 +8°C° 0 mm 2 m/s 746 mmHg 71%
    20:00 +8°C° 0.1 mm 3 m/s 747 mmHg 71%
    21:00 +8°C° 0.1 mm 3 m/s 747 mmHg 71%
    22:00 +7°C° 0.1 mm 4 m/s 747 mmHg 71%
    23:00 +6°C° 0 mm 5 m/s 747 mmHg 73%

    22 Février, Vendredi

    Heure Température Précipitation Vent Pression Humidité
    00:00 +5°C° 0 mm 6 m/s 747 mmHg 75%
    01:00 +5°C° 0 mm 7 m/s 748 mmHg 76%
    02:00 +5°C° 0 mm 7 m/s 748 mmHg 80%
    03:00 +5°C° 0 mm 7 m/s 748 mmHg 83%
    04:00 +4°C° 0 mm 7 m/s 748 mmHg 86%
    05:00 +4°C° 0 mm 7 m/s 748 mmHg 86%
    06:00 +4°C° 0 mm 7 m/s 749 mmHg 87%
    07:00 +4°C° 0 mm 7 m/s 749 mmHg 88%
    08:00 +5°C° 0 mm 7 m/s 750 mmHg 80%
    09:00 +6°C° 0 mm 8 m/s 750 mmHg 72%
    10:00 +7°C° 0 mm 8 m/s 750 mmHg 64%
    11:00 +9°C° 0 mm 8 m/s 751 mmHg 61%
    12:00 +9°C° 0 mm 8 m/s 751 mmHg 58%
    13:00 +10°C° 0 mm 8 m/s 751 mmHg 56%
    14:00 +10°C° 0 mm 8 m/s 751 mmHg 57%
    15:00 +9°C° 0 mm 8 m/s 751 mmHg 58%
    16:00 +9°C° 0 mm 8 m/s 751 mmHg 59%
    17:00 +8°C° 0 mm 7 m/s 752 mmHg 62%
    18:00 +6°C° 0 mm 7 m/s 753 mmHg 64%
    19:00 +5°C° 0 mm 6 m/s 753 mmHg 66%
    20:00 +5°C° 0 mm 5 m/s 754 mmHg 70%
    21:00 +5°C° 0 mm 4 m/s 755 mmHg 74%
    22:00 +4°C° 0 mm 3 m/s 755 mmHg 77%
    23:00 +4°C° 0 mm 3 m/s 756 mmHg 73%

    23 Février, Samedi

    Heure Température Précipitation Vent Pression Humidité
    00:00 +4°C° 0 mm 2 m/s 756 mmHg 69%
    01:00 +4°C° 0 mm 2 m/s 757 mmHg 64%
    02:00 +3°C° 0 mm 2 m/s 757 mmHg 60%
    03:00 +2°C° 0 mm 2 m/s 757 mmHg 57%
    04:00 +1°C° 0 mm 2 m/s 757 mmHg 53%
    05:00 +1°C° 0 mm 2 m/s 757 mmHg 51%
    06:00 -1°C° 0 mm 2 m/s 758 mmHg 49%
    07:00 +1°C° 0 mm 1 m/s 758 mmHg 47%
    08:00 +1°C° 0 mm 2 m/s 758 mmHg 41%
    09:00 +2°C° 0 mm 2 m/s 759 mmHg 35%
    10:00 +3°C° 0 mm 2 m/s 759 mmHg 29%
    11:00 +5°C° 0 mm 2 m/s 759 mmHg 28%
    12:00 +7°C° 0 mm 1 m/s 759 mmHg 27%
    13:00 +7°C° 0 mm 0 m/s 758 mmHg 26%
    14:00 +8°C° 0 mm 1 m/s 758 mmHg 27%
    15:00 +8°C° 0 mm 1 m/s 757 mmHg 28%
    16:00 +8°C° 0 mm 1 m/s 757 mmHg 29%
    17:00 +7°C° 0 mm 1 m/s 757 mmHg 33%
    18:00 +5°C° 0 mm 2 m/s 756 mmHg 37%
    19:00 +5°C° 0 mm 2 m/s 756 mmHg 40%
    20:00 +4°C° 0 mm 2 m/s 756 mmHg 43%
    21:00 +4°C° 0 mm 2 m/s 756 mmHg 45%
    22:00 +3°C° 0 mm 2 m/s 756 mmHg 47%
    23:00 +3°C° 0 mm 2 m/s 755 mmHg 51%
    Voir plus